Location: Lombard
(41.8800°N, 88.0080°W)
Time: 12:45:42
(UTC-06:00)

Transit 4A - Pass Details

Date: 04 December 2023
Orbit: 870 x 973 km, 66.8° (Epoch: 02 March)

Event Time Altitude Azimuth Distance (km) Brightness Sun altitude
Rises 05:25:13 0° 326° (NNW) 3,590 - -17.7°
Reaches altitude 10° 05:27:48 10° 324° (NW) 2,627 - -17.2°
Exits shadow 05:29:30 19° 320° (NW) 2,021 9.2 -16.9°
Maximum altitude 05:33:48 63° 245° (WSW) 1,008 7.9 -16.1°
Drops below altitude 10° 05:39:37 10° 165° (SSE) 2,543 10.6 -15.1°
Sets 05:42:05 0° 162° (SSE) 3,467 11.4 -14.6°
